Total_Precipitation_Accumulation
0.68 0.69 0.50 0.42 0.35 0.41 0.55 0.48 0.34 0.31 0.33 0.32 0.26 0.21 0.20 0.19 0.25 0.29 0.28 0.35 0.37 0.29 0.29 0.27 0.25 0.24 0.22 0.22 0.19 0.16 0.16 0.16 0.13 0.13 0.13 0.11 0.08 0.06 0.03 0.03 0.04 0.04 0.04
0.81 0.65 0.59 0.56 0.54 0.65 0.63 0.51 0.42 0.37 0.32 0.34 0.27 0.23 0.22 0.21 0.23 0.31 0.32 0.38 0.42 0.30 0.26 0.31 0.29 0.25 0.23 0.22 0.21 0.20 0.17 0.15 0.12 0.10 0.09 0.08 0.09 0.09 0.07 0.05 0.08 0.06 0.06
0.83 0.80 0.71 0.64 0.70 0.70 0.67 0.67 0.58 0.44 0.34 0.37 0.35 0.32 0.24 0.24 0.31 0.28 0.24 0.24 0.27 0.34 0.32 0.31 0.33 0.27 0.25 0.24 0.26 0.26 0.19 0.15 0.11 0.08 0.05 0.06 0.09 0.09 0.11 0.08 0.09 0.10 0.10
0.70 0.71 0.64 0.67 0.73 0.59 0.51 0.49 0.39 0.31 0.26 0.28 0.23 0.15 0.12 0.18 0.28 0.28 0.19 0.12 0.13 0.12 0.18 0.31 0.38 0.29 0.29 0.33 0.31 0.27 0.19 0.10 0.06 0.07 0.05 0.04 0.06 0.05 0.05 0.05 0.04 0.08 0.09
0.30 0.32 0.30 0.35 0.43 0.40 0.33 0.26 0.30 0.25 0.20 0.24 0.27 0.16 0.12 0.16 0.21 0.22 0.16 0.09 0.09 0.10 0.08 0.15 0.23 0.22 0.30 0.35 0.32 0.26 0.22 0.17 0.09 0.08 0.07 0.06 0.06 0.04 0.01 0.02 0.03 0.04 0.05
0.13 0.10 0.10 0.12 0.15 0.17 0.18 0.17 0.14 0.17 0.12 0.13 0.17 0.11 0.12 0.14 0.18 0.18 0.12 0.07 0.05 0.05 0.05 0.08 0.12 0.14 0.21 0.26 0.26 0.22 0.22 0.22 0.15 0.11 0.07 0.09 0.14 0.11 0.03 0.01 0.02 0.04 0.05
0.01 0.01 0.01 0.01 0.01 0.02 0.03 0.05 0.07 0.08 0.06 0.12 0.13 0.08 0.07 0.06 0.09 0.11 0.10 0.08 0.04 0.03 0.04 0.06 0.08 0.11 0.13 0.18 0.23 0.23 0.24 0.25 0.22 0.19 0.15 0.12 0.14 0.16 0.10 0.05 0.04 0.06 0.07
0.00 0.00 0.00 0.00 0.00 0.00 0.00 0.00 0.02 0.03 0.04 0.05 0.08 0.09 0.05 0.03 0.04 0.04 0.07 0.06 0.04 0.06 0.05 0.06 0.08 0.14 0.18 0.25 0.30 0.25 0.28 0.29 0.32 0.32 0.30 0.23 0.16 0.13 0.11 0.09 0.06 0.06 0.07
0.00 0.00 0.00 0.00 0.00 0.00 0.01 0.01 0.01 0.02 0.03 0.03 0.06 0.10 0.07 0.03 0.03 0.04 0.04 0.05 0.06 0.07 0.05 0.07 0.09 0.10 0.14 0.26 0.41 0.45 0.38 0.35 0.44 0.46 0.43 0.34 0.22 0.16 0.15 0.13 0.12 0.11 0.07
0.00 0.00 0.00 0.00 0.01 0.01 0.02 0.02 0.02 0.04 0.05 0.05 0.06 0.10 0.11 0.12 0.11 0.06 0.04 0.04 0.09 0.10 0.09 0.10 0.11 0.14 0.23 0.35 0.47 0.55 0.45 0.39 0.43 0.44 0.41 0.36 0.30 0.23 0.20 0.20 0.24 0.24 0.18
0.01 0.00 0.00 0.01 0.01 0.01 0.02 0.02 0.03 0.05 0.07 0.09 0.09 0.11 0.14 0.17 0.18 0.15 0.06 0.06 0.10 0.08 0.08 0.11 0.18 0.20 0.25 0.41 0.63 0.60 0.46 0.38 0.40 0.44 0.39 0.35 0.31 0.27 0.21 0.19 0.28 0.34 0.30
0.01 0.01 0.01 0.01 0.01 0.01 0.01 0.02 0.03 0.05 0.07 0.09 0.11 0.12 0.15 0.15 0.16 0.20 0.13 0.10 0.11 0.08 0.09 0.10 0.17 0.24 0.32 0.41 0.47 0.50 0.50 0.43 0.41 0.44 0.44 0.42 0.35 0.27 0.24 0.25 0.32 0.40 0.43
0.04 0.03 0.02 0.02 0.02 0.02 0.01 0.01 0.02 0.03 0.04 0.07 0.09 0.11 0.15 0.15 0.19 0.21 0.17 0.14 0.20 0.21 0.26 0.24 0.25 0.36 0.40 0.53 0.48 0.47 0.45 0.38 0.29 0.25 0.23 0.24 0.24 0.24 0.27 0.27 0.29 0.32 0.39
0.17 0.14 0.08 0.04 0.03 0.02 0.01 0.01 0.01 0.01 0.03 0.06 0.06 0.12 0.14 0.12 0.17 0.17 0.16 0.23 0.27 0.31 0.36 0.35 0.39 0.57 0.73 0.69 0.66 0.52 0.33 0.24 0.17 0.14 0.11 0.09 0.08 0.07 0.07 0.13 0.19 0.24 0.30
0.22 0.19 0.14 0.09 0.05 0.03 0.02 0.02 0.01 0.02 0.04 0.07 0.11 0.15 0.17 0.17 0.19 0.22 0.24 0.30 0.35 0.32 0.36 0.47 0.53 0.61 0.71 0.64 0.58 0.45 0.27 0.17 0.11 0.08 0.06 0.04 0.03 0.02 0.01 0.01 0.04 0.07 0.12
0.18 0.16 0.14 0.10 0.07 0.05 0.05 0.04 0.03 0.04 0.07 0.12 0.16 0.19 0.22 0.22 0.23 0.26 0.27 0.35 0.45 0.43 0.45 0.51 0.54 0.55 0.54 0.40 0.36 0.30 0.19 0.11 0.06 0.04 0.02 0.01 0.01 0.00 0.00 0.00 0.00 0.01 0.02
0.16 0.14 0.13 0.12 0.09 0.06 0.05 0.06 0.06 0.05 0.06 0.08 0.10 0.14 0.19 0.23 0.26 0.29 0.36 0.42 0.45 0.52 0.52 0.46 0.51 0.55 0.48 0.32 0.22 0.18 0.12 0.07 0.03 0.03 0.02 0.01 0.01 0.00 0.00 0.00 0.00 0.00 0.00
0.14 0.14 0.13 0.11 0.08 0.07 0.07 0.07 0.07 0.05 0.05 0.05 0.05 0.09 0.12 0.14 0.20 0.26 0.34 0.39 0.45 0.57 0.59 0.44 0.43 0.47 0.42 0.31 0.20 0.16 0.09 0.04 0.02 0.02 0.02 0.01 0.01 0.01 0.00 0.00 0.00 0.00 0.00
0.13 0.13 0.13 0.11 0.09 0.07 0.07 0.07 0.07 0.06 0.06 0.05 0.06 0.08 0.08 0.11 0.16 0.21 0.30 0.33 0.38 0.55 0.63 0.54 0.47 0.44 0.42 0.29 0.20 0.15 0.08 0.04 0.02 0.01 0.01 0.00 0.00 0.00 0.00 0.00 0.00 0.00 0.00
0.11 0.12 0.12 0.11 0.10 0.08 0.06 0.06 0.06 0.05 0.05 0.06 0.09 0.09 0.08 0.10 0.11 0.11 0.21 0.33 0.40 0.48 0.58 0.58 0.58 0.56 0.45 0.33 0.27 0.20 0.13 0.06 0.03 0.01 0.00 0.00 0.00 0.00 0.00 0.00 0.00 0.00 0.00
0.09 0.12 0.12 0.12 0.11 0.10 0.07 0.06 0.07 0.06 0.05 0.05 0.07 0.09 0.06 0.05 0.06 0.07 0.10 0.22 0.35 0.51 0.68 0.75 0.73 0.75 0.62 0.46 0.35 0.25 0.18 0.11 0.05 0.02 0.02 0.02 0.02 0.01 0.00 0.00 0.00 0.00 0.00
0.09 0.12 0.13 0.13 0.13 0.10 0.08 0.06 0.06 0.06 0.06 0.06 0.07 0.09 0.07 0.02 0.01 0.02 0.03 0.09 0.19 0.33 0.52 0.71 0.81 0.85 0.77 0.63 0.46 0.31 0.20 0.10 0.08 0.06 0.05 0.04 0.02 0.01 0.00 0.00 0.00 0.00 0.00
0.08 0.13 0.15 0.15 0.15 0.15 0.12 0.08 0.06 0.06 0.06 0.07 0.07 0.07 0.06 0.03 0.02 0.00 0.01 0.02 0.05 0.13 0.25 0.41 0.56 0.63 0.67 0.64 0.48 0.33 0.21 0.13 0.08 0.07 0.06 0.03 0.01 0.00 0.00 0.00 0.00 0.00 0.00
0.08 0.12 0.14 0.16 0.17 0.17 0.14 0.10 0.08 0.07 0.08 0.08 0.08 0.07 0.07 0.06 0.03 0.01 0.01 0.01 0.02 0.04 0.10 0.18 0.28 0.37 0.41 0.39 0.32 0.27 0.20 0.13 0.09 0.06 0.04 0.04 0.02 0.01 0.01 0.00 0.00 0.00 0.00
0.10 0.14 0.17 0.19 0.21 0.21 0.17 0.11 0.09 0.08 0.09 0.10 0.10 0.09 0.08 0.06 0.02 0.01 0.01 0.01 0.01 0.02 0.04 0.07 0.13 0.19 0.22 0.19 0.15 0.13 0.11 0.07 0.06 0.04 0.02 0.02 0.02 0.05 0.06 0.03 0.00 0.00 0.00
0.14 0.18 0.22 0.26 0.28 0.27 0.22 0.15 0.12 0.09 0.10 0.12 0.14 0.14 0.11 0.05 0.02 0.01 0.02 0.01 0.00 0.00 0.01 0.02 0.04 0.06 0.08 0.08 0.08 0.07 0.05 0.03 0.02 0.02 0.01 0.01 0.01 0.04 0.08 0.05 0.01 0.00 0.00